Location: Nassau
(25.0830°N, 77.3500°W)
Time: 20:17:45
(UTC-04:00)

ISS - All Passes

Search period start: 24 September 2016 00:00
Search period end: 04 October 2016 00:00
Orbit: 400 x 410 km, 51.6° (Epoch: 25 September)

Date Brightness Start Highest point End Pass type
(mag) Time Alt. Az. Time Alt. Az. Time Alt. Az.
24 Sep - 05:56:52 10° NNW 06:00:03 46° NE 06:03:14 10° ESE visible
24 Sep - 20:54:07 10° SW 20:57:21 87° ESE 21:00:36 10° NE visible
25 Sep - 05:05:22 10° N 05:07:57 21° NE 05:10:30 10° E visible
25 Sep - 06:41:53 10° WNW 06:44:18 19° SW 06:46:42 10° S daylight
25 Sep - 20:02:27 10° SSW 20:05:22 32° SE 20:08:19 10° ENE visible
25 Sep - 21:40:15 10° WNW 21:41:55 13° NW 21:43:34 10° N visible
26 Sep - 04:14:56 10° NNE 04:15:43 11° NE 04:16:30 10° NE visible
26 Sep - 05:49:11 10° NW 05:52:21 46° SW 05:55:31 10° SSE visible
26 Sep - 19:11:44 10° SSE 19:13:28 14° SE 19:15:13 10° E daylight
26 Sep - 20:46:55 10° WSW 20:49:43 26° NW 20:52:32 10° NNE visible
27 Sep - 04:57:04 10° NW 05:00:20 66° NE 05:03:36 10° SE visible
27 Sep - 19:54:24 10° SW 19:57:37 64° NW 20:00:50 10° NE visible
28 Sep - 04:05:22 10° NNW 04:08:14 27° NE 04:11:06 10° ESE night (unlit)
28 Sep - 05:42:41 10° W 05:44:29 14° SW 05:46:17 10° SSW visible
28 Sep - 19:02:28 10° SSW 19:05:35 46° SE 19:08:42 10° NE daylight
28 Sep - 20:41:44 10° NW 20:42:13 10° NW 20:42:42 10° NNW visible
29 Sep - 03:14:16 10° N 03:16:01 14° NE 03:17:45 10° ENE night (unlit)
29 Sep - 04:49:33 10° WNW 04:52:32 32° SW 04:55:30 10° SSE night (unlit)
29 Sep - 18:11:14 10° S 18:13:36 19° SE 18:15:58 10° ENE daylight
29 Sep - 19:47:28 10° W 19:49:57 20° NW 19:52:26 10° N visible
30 Sep - 03:57:13 10° NW 04:00:30 86° SW 04:03:48 10° SE night (unlit)
30 Sep - 18:54:39 10° WSW 18:57:46 45° NW 19:00:54 10° NNE daylight
01 Oct - 03:05:19 10° NNW 03:08:24 36° NE 03:11:28 10° ESE night (unlit)
01 Oct - 04:44:19 10° WSW 04:44:33 10° SW 04:44:48 10° SW night (unlit)
01 Oct - 18:02:28 10° SSW 18:05:40 68° SE 18:08:53 10° NE daylight
02 Oct - 02:13:54 10° N 02:16:11 17° NE 02:18:28 10° E night (unlit)
02 Oct - 03:49:54 10° WNW 03:52:35 23° SW 03:55:16 10° S night (unlit)
02 Oct - 17:10:54 10° S 17:13:38 26° SE 17:16:23 10° ENE daylight
02 Oct - 18:48:01 10° W 18:50:05 16° NW 18:52:09 10° N daylight
03 Oct - 02:57:19 10° NW 03:00:33 59° SW 03:03:46 10° SSE night (unlit)
03 Oct - 16:20:40 10° SE 16:21:39 11° SE 16:22:38 10° ESE daylight
03 Oct - 17:54:53 10° WSW 17:57:50 32° NW 18:00:48 10° NNE daylight
